www.pogodaiklimat.ru

Погода и климат >> Архив погоды >> Турция >> Измир аэропорт


ПОГОДА в Измир аэропорту

  • Прогноз погоды в Измир аэропорту
  • Монитор погоды в Измир аэропорту

АРХИВ ПОГОДЫ в Измир аэропорту

Время (UTC), дата Ветер
(напр.,м/с)
 
Видим.   Явления Облачность Т
(С)
Тd
(С)
f
(%)
Тe
(С)
Тes
(С)
Комфортность P
(гПа)
Po
(гПа)
Тmin
(С)
Tmax
(С)
R
(мм)
R24
(мм)
S
(см)
18 12.06 С 2
{7}
15 км {гроза} 6/1 900 м
[Cu hum Ac trans Ci fib]
+24.1 +18.1 69 +28 +28 душно 1012.2 998.4 +28.8 1
21 12.06 СЗ 2
{9}
15 км ясно +22.2 +18.8 81 +28 +28 душно 1012.6 998.8
00 13.06 З 1
{9}
15 км ясно +20.9 +18.4 86 +26 +26 душно 1012.7 998.8
03 13.06 С 4
{7}
15 км ясно +21.5 +19.3 87 +26 +26 душно 1012.2 998.4
06 13.06 С 7
{9}
15 км 4/0
[Ci fib]
+25.4 +18.9 67 +30 +32 душно 1013.6 999.8 +20.5
09 13.06 С 7
{10}
15 км 3/3 900 м
[Cu hum]
+28.7 +18.4 54 +34 +38 очень
душно
1013.3 999.6
12 13.06 С 7
{11}
15 км 5/4 900 м
[Cu med, cong Ci fib]
+31.1 +17.4 44 +35 +38 очень
душно
1012.1 998.4
15 13.06 С 8
{13}
15 км 5/3 900 м
[Cu med, cong Ci fib]
+30.9 +17.5 45 +35 +35 очень
душно
1011.2 997.5
18 13.06 С 6
{13}
15 км 3/0
[Ci fib]
+28.2 +17.0 51 +32 +32 душно 1012.4 998.8 +32.5
21 13.06 С 2
{9}
15 км ясно +26.1 +14.4 48 +28 +28 жарко 1013.8 1000.2
00 14.06 С 4
{9}
15 км ясно +23.1 +14.1 57 +27 +27 душно 1012.8 999.2
03 14.06 С 4
{6}
15 км ясно +21.4 +14.6 65 +24 +24 комфорт 1013.1 999.4
06 14.06 С 6
{9}
15 км ясно +27.8 +13.7 42 +30 +33 жарко 1013.5 999.9 +21.1
09 14.06 С 6
{9}
15 км ясно +31.6 +14.6 36 +34 +42 душно 1013.2 999.6
12 14.06 С 8
{13}
15 км 5/5 900 м
[Cu med, cong]
+33.2 +16.0 36 +36 +38 очень
душно
1011.6 998.0
15 14.06 СЗ 8-13
{14}
15 км 5/5 900 м
[Cu med, cong]
+32.9 +14.4 33 +34 +35 очень
жарко
1010.1 996.5
18 14.06 СВ 7
{14}
15 км 1/1 900 м
[Cu hum]
+28.9 +13.9 40 +31 +31 жарко 1010.6 997.1 +34.1
21 14.06 С 5
{12}
15 км 3/0
[Ac trans]
+26.2 +13.9 47 +28 +28 жарко 1011.3 997.8
00 15.06 С 8
{12}
15 км ясно +25.7 +13.7 47 +28 +28 жарко 1009.6 996.1
03 15.06 С 4
{12}
15 км 3/0
[Ci fib]
+22.8 +16.0 65 +27 +27 душно 1009.9 996.3
06 15.06 С 8
{13}
15 км 3/3 900 м
[Cu hum]
+26.7 +14.4 47 +29 +30 жарко 1009.6 996.0 +22.4
09 15.06 С 7
{13}
15 км 3/3 900 м
[Cu hum]
+29.7 +14.6 40 +32 +35 душно 1008.8 995.3
12 15.06 СЗ 8-13
{13}
15 км 5/5 900 м
[Cu med, cong]
+31.5 +17.0 42 +35 +36 очень
душно
1006.7 993.2
15 15.06 С 11
{14}
15 км гроза без осадков 6/5 750 м
[Cb cap Ac trans]
+30.0 +16.7 45 +34 +34 очень
душно
1006.1 992.5
18 15.06 З 3
{14}
15 км гроза, ливневой дождь 8/5 750 м
[Cb cap Ac und]
+20.5 +17.9 85 +25 +25 комфорт 1009.5 995.7 +31.8 2
21 15.06 ЮВ 1
{9}
15 км слаб. ливневой дождь {гроза} 6/4 900 м
[Cu med, cong Ac und]
+20.5 +18.9 91 +26 +26 душно 1009.0 995.3
00 16.06 С 1
{9}
15 км {гроза, ливн. осадки} 4/3 900 м
[Cu hum Ci fib]
+19.4 +17.7 90 +23 +23 комфорт 1008.8 995.1 1
03 16.06 В 2
{4}
15 км 3/3 900 м
[Cu hum]
+18.8 +17.0 89 +21 +21 комфорт 1008.3 994.6
06 16.06 С 4
{7}
15 км 6/3 900 м
[Cu hum Ac und]
+25.0 +18.5 67 +30 +32 душно 1008.9 995.1 +18.0 1
09 16.06 С 9
{11}
15 км 6/4 900 м
[Cu med, cong Ac trans]
+28.1 +17.2 52 +32 +33 душно 1009.4 995.7
12 16.06 СВ 6
{12}
15 км 6/4 900 м
[Cu med, cong Ac trans]
+30.8 +17.7 46 +35 +39 очень
душно
1008.4 994.7
15 16.06 С 6
{10}
15 км 5/5 900 м
[Cu med, cong]
+30.8 +16.6 42 +34 +35 очень
душно
1007.0 993.3
18 16.06 ЮВ 3
{10}
15 км 8/5 900 м
[Cu med, cong Ac und]
+25.5 +17.3 60 +29 +29 душно 1008.4 994.7 +31.3
21 16.06 В 2
{5}
15 км 6/4 900 м
[Cu hum Ci fib]
+22.8 +17.5 72 +28 +28 душно 1009.1 995.4
00 17.06 С 5
{7}
15 км 5/0
[Ci fib]
+23.2 +17.5 70 +29 +29 душно 1008.2 994.6
03 17.06 Ю 2
{7}
15 км 4/0
[Ac trans Ci fib]
+19.6 +17.6 88 +23 +23 комфорт 1008.5 994.8
06 17.06 С 8
{11}
15 км 3/0
[Ci fib]
+25.8 +16.6 57 +29 +31 душно 1009.0 995.4 +19.5
09 17.06 нст 4
{11}
15 км 4/4 900 м
[Cu med, cong]
+27.7 +18.1 56 +32 +41 очень
душно
1009.3 995.6
12 17.06 С 5
{11}
15 км 8/8 450 м
[Cb cap]
+30.4 +17.4 46 +34 +36 очень
душно
1007.9 994.3
15 17.06 С 6
{11}
15 км {гроза} 8/5 900 м
[Cu med, cong Ac und]
+29.0 +18.1 52 +34 +34 очень
душно
1007.4 993.7
18 17.06 Ю 2
{15}
15 км {гроза} 6/4 900 м
[Cu med, cong Ac und]
+22.0 +19.0 83 +27 +27 душно 1008.6 994.9 +31.2 1
21 17.06 С 5
{8}
15 км в посл. час ливневой дождь 5/5 900 м
[Cu med, cong]
+23.6 +18.6 74 +28 +28 душно 1009.5 995.8
00 18.06 С 5
{8}
15 км {ливн. осадки} 5/4 900 м
[Cu hum Ac trans]
+23.1 +17.7 72 +29 +29 очень
душно
1009.1 995.5 0.0
03 18.06 СВ 3
{9}
15 км 5/4 900 м
[Cu med, cong Ac trans]
+21.8 +16.4 71 +26 +26 душно 1009.4 995.7
06 18.06 С 6
{9}
15 км 5/4 900 м
[Cu med, cong Ac trans]
+25.7 +16.4 56 +29 +31 душно 1010.4 996.6 +20.5
09 18.06 С 6
{10}
15 км 6/4 900 м
[Cu med, cong Ac und]
+29.5 +16.6 46 +33 +37 душно 1010.4 996.8
12 18.06 С 8
{12}
15 км 8/5 750 м
[Cu med, cong Ac und]
+30.4 +17.8 47 +35 +36 очень
душно
1009.5 995.9
15 18.06 С 8
{11}
15 км гроза без осадков 8/5 750 м
[Cb cap Ac und]
+27.5 +17.2 53 +31 +32 душно 1009.2 995.5
18 18.06 ЮВ 2
{15}
15 км {гроза} 8/1 900 м
[Cu hum Ci fib]
+22.3 +18.1 77 +27 +27 душно 1011.0 997.2 +31.1
21 18.06 штиль 0
{8}
15 км 1/1 900 м
[Cu hum]
+21.8 +18.2 80 +27 +27 душно 1011.3 997.6
00 19.06 штиль 0
{8}
15 км 8/1 900 м
[Cu hum Ci fib]
+20.6 +18.7 89 +24 +24 комфорт 1010.0 996.3
03 19.06 Ю 2
{3}
15 км 8/1 900 м
[Cu hum Ci fib]
+19.7 +17.9 89 +23 +23 комфорт 1009.7 995.9
06 19.06 С 5
{7}
15 км 8/1 900 м
[Cu hum Ac trans Ci fib]
+24.2 +18.1 69 +29 +31 душно 1010.5 996.7 +19.6
09 19.06 С 6
{10}
15 км 9/4 900 м
[Cu med, cong Ac trans Ci fib]
+27.1 +17.8 57 +32 +34 очень
душно
1010.5 996.8
12 19.06 С 6
{11}
15 км 9/4 900 м
[Cu med, cong Ac trans Ci fib]
+27.4 +17.3 54 +31 +34 душно 1009.6 995.9
15 19.06 С 5
{11}
15 км в посл. час гроза 9/5 600 м
[Cb cap Ac und]
+25.9 +17.7 61 +30 +31 душно 1009.2 995.4

 

Местоположение метеостанции Измир аэропорт (Турция): широта 38.27 долгота 27.15 высота над уровнем моря 120 м.

В архиве по умолчанию представлена погода в Измир аэропорту за последнюю неделю. Архивные данные за месяц целиком и за предыдущие месяцы, начиная с января 2011 года, Вы можете получить, выбрав интересующий диапазон дат из раскрывающегося списка и нажав кнопку "Ввод!".


*Определитесь, кто Вы:
робот инопланетянин человек

Внимание! Время в таблицах - всемирное. Для получения местного времени необходимо прибавить поправку, которая равна 2 ч.

Смотрите также архив погоды в соседних городах и на ближайших метеорологических станциях:

Погода в Измире (Турция) (18 км)
Погода в Измир / Сигли (Турция) (28 км)
Погода в Кушадасы (Турция) (45 км)
Погода в Манисе (Турция) (46 км)
Погода на Самосе (Греция) (67 км)
Погода в Чешме (Турция) (74 км)
Погода в Айдыне (Турция) (77 км)
Погода на Хиосе (Греция) (89 км)
Погода в Дикили (Турция) (90 км)
Погода в Акхисаре (Турция) (94 км)

Пояснения к столбцам:

Ветер - указаны скорость ветра в м/с - средняя за 10 мин, порывы в срок и между сроками (в фигурных скобках) и направление, откуда дует ветер: С - северный, СВ - северо-восточный, В - восточный, ЮВ - юго-восточный, Ю - южный, ЮЗ - юго-западный, З - западный, СЗ - северо-западный.
Видимость - горизонтальная дальность видимости в метрах или километрах. При видимости от 1 до 10 км при отсутствии осадков обычно наблюдается дымка, при ухудшении видимости до 1 км и менее - туман. В сухую погоду видимость может ухудшаться дымом, пылью или мглою.
Явления - указаны атмосферные явления, наблюдавшиеся в срок или в последний час перед сроком; фигурными скобками обозначены явления, наблюдавшиеся между сроками (за 1-3 часа до срока); квадратными скобками обозначены град или гололедные отложения с указанием их диаметра в мм.
Облачность - указаны через наклонную черту общая и нижняя облачность в баллах и высота нижней границы облаков в метрах; квадратными скобками обозначены формы облаков: Ci - перистые, Cs - перисто-слоистые, Cc - перисто-кучевые, Ac - высококучевые, As - высокослоистые, Sc - слоисто-кучевые, Ns - слоисто-дождевые, Cu - кучевые, Cb - кучево-дождевые. Подробнее классификацию облаков см. в Атласе облаков (PDF).
T - Температура воздуха - температура, измеренная на высоте 2 м над землей.
Td - Температура точки росы - температура, при понижении до которой содержащийся в воздухе водяной пар достигнет насыщения.
f - Относительная влажность воздуха - влажноcть воздуха, измеренная на высоте 2 м над землей.
Te - Эффективная температура - температура, которую ощущает одетый по сезону человек в тени. Характеристика душности погоды. При расчете учитывается влияние влажности воздуха и скорости ветра на теплоощущения человека.
Tes - Эффективная температура на солнце - температура, которую ощущает человек, с поправкой на солнечный нагрев. Характеристика знойности погоды. Зависит от высоты солнца над горизонтом, облачности и скорости ветра. Ночью, в пасмурную погоду, а также при ветре 12 м/с и более поправка равна нулю.
P - Атмосферное давление - приведенное к уровню моря атмосферное давление.
Po - Атмосферное давление - измеренное на уровне метеостанции атмосферное давление.
Tmin - Минимальная температура - минимум температуры воздуха на высоте 2 м над землей.
Tmax - Максимальная температура - максимум температуры воздуха на высоте 2 м над землей.
R - Количество осадков - Количество выпавших осадков за период времени, мм. При наведении курсора мыши на число - период времени, за который выпало указанное количество осадков.
R24 - Количество осадков - Количество выпавших осадков за 24 часа, мм.
S - Снежный покров - Высота снежного покрова, см. При наведении курсора мыши на число - состояние снежного покрова и степень покрытия местности в баллах.